Time,TemperatureF,DewpointF,PressureIn,WindDirection,WindDirectionDegrees,WindSpeedMPH,WindSpeedGustMPH,Humidity,HourlyPrecipIn,Conditions,Clouds,dailyrainin,SoftwareType,DateUTC
2013-06-06 00:00:00,68.2,51.9,28.19,WNW,292,0.0,25.7,87,0.00,,,-99.99,HOBO +U30 +Weather +,2013-06-06 07:00:00,
2013-06-06 00:15:00,68.1,51.9,28.19,WNW,292,0.0,23.7,87,0.00,,,-99.99,HOBO +U30 +Weather +,2013-06-06 07:15:00,
2013-06-06 00:35:00,67.9,51.7,28.20,WNW,292,0.0,25.7,89,0.00,,,-99.99,HOBO +U30 +Weather +,2013-06-06 07:35:00,
2013-06-06 00:45:00,67.7,52.1,28.19,WNW,293,0.0,23.7,88,0.00,,,-99.99,HOBO +U30 +Weather +,2013-06-06 07:45:00,
2013-06-06 01:00:00,67.6,51.8,28.19,WNW,293,0.0,25.7,89,0.00,,,-99.99,HOBO +U30 +Weather +,2013-06-06 08:00:00,
2013-06-06 01:15:00,67.5,51.7,28.19,WNW,292,0.0,23.3,90,0.00,,,-99.99,HOBO +U30 +Weather +,2013-06-06 08:15:00,
2013-06-06 01:35:00,67.3,51.5,28.19,WNW,292,0.0,23.3,90,0.00,,,-99.99,HOBO +U30 +Weather +,2013-06-06 08:35:00,
2013-06-06 01:45:00,67.2,51.2,28.19,WNW,292,0.0,24.4,91,0.00,,,-99.99,HOBO +U30 +Weather +,2013-06-06 08:45:00,
2013-06-06 02:00:00,67.1,50.7,28.19,WNW,292,0.0,24.8,92,0.00,,,-99.99,HOBO +U30 +Weather +,2013-06-06 09:00:00,
2013-06-06 02:15:00,66.9,50.6,28.19,WNW,293,0.0,24.4,92,0.00,,,-99.99,HOBO +U30 +Weather +,2013-06-06 09:15:00,
2013-06-06 02:34:00,66.8,50.1,28.19,WNW,293,0.0,24.8,93,0.00,,,-99.99,HOBO +U30 +Weather +,2013-06-06 09:34:00,
2013-06-06 02:45:00,66.7,49.6,28.19,WNW,292,0.0,25.7,94,0.00,,,-99.99,HOBO +U30 +Weather +,2013-06-06 09:45:00,
2013-06-06 03:00:00,66.5,49.2,28.19,WNW,293,0.0,24.8,94,0.00,,,-99.99,HOBO +U30 +Weather +,2013-06-06 10:00:00,
2013-06-06 03:15:00,66.3,48.6,28.19,WNW,292,0.0,27.7,95,0.00,,,-99.99,HOBO +U30 +Weather +,2013-06-06 10:15:00,
2013-06-06 03:33:00,66.2,48.9,28.19,WNW,292,0.0,26.6,95,0.00,,,-99.99,HOBO +U30 +Weather +,2013-06-06 10:33:00,
2013-06-06 03:45:00,66.1,48.8,28.19,WNW,292,0.0,25.7,95,0.00,,,-99.99,HOBO +U30 +Weather +,2013-06-06 10:45:00,
2013-06-06 04:00:00,65.9,47.8,28.19,WNW,292,0.0,26.6,95,0.00,,,-99.99,HOBO +U30 +Weather +,2013-06-06 11:00:00,
2013-06-06 04:15:00,65.8,48.2,28.19,WNW,292,0.0,24.8,96,0.00,,,-99.99,HOBO +U30 +Weather +,2013-06-06 11:15:00,
2013-06-06 04:33:00,65.6,47.5,28.20,WNW,292,0.0,26.2,96,0.00,,,-99.99,HOBO +U30 +Weather +,2013-06-06 11:33:00,
2013-06-06 04:45:00,65.4,47.7,28.19,WNW,292,0.0,24.8,96,0.00,,,-99.99,HOBO +U30 +Weather +,2013-06-06 11:45:00,
2013-06-06 05:00:00,65.3,47.2,28.20,WNW,292,0.0,24.8,96,0.00,,,-99.99,HOBO +U30 +Weather +,2013-06-06 12:00:00,
2013-06-06 05:15:00,65.1,46.8,28.20,WNW,292,0.0,25.3,96,0.00,,,-99.99,HOBO +U30 +Weather +,2013-06-06 12:15:00,
2013-06-06 05:33:00,65.0,46.5,28.19,WNW,292,0.0,25.3,96,0.00,,,-99.99,HOBO +U30 +Weather +,2013-06-06 12:33:00,
2013-06-06 05:45:00,64.8,46.4,28.19,WNW,292,0.0,25.3,96,0.00,,,-99.99,HOBO +U30 +Weather +,2013-06-06 12:45:00,
2013-06-06 06:00:00,64.6,46.4,28.20,WNW,292,0.0,26.2,96,0.00,,,-99.99,HOBO +U30 +Weather +,2013-06-06 13:00:00,
2013-06-06 06:15:00,64.5,46.1,28.20,WNW,292,0.0,26.6,96,0.00,,,-99.99,HOBO +U30 +Weather +,2013-06-06 13:15:00,
2013-06-06 06:33:00,64.4,46.8,28.19,WNW,292,0.0,25.3,96,0.00,,,-99.99,HOBO +U30 +Weather +,2013-06-06 13:33:00,
2013-06-06 06:45:00,64.2,47.3,28.20,WNW,292,0.0,23.7,96,0.00,,,-99.99,HOBO +U30 +Weather +,2013-06-06 13:45:00,
2013-06-06 07:00:00,64.1,48.3,28.20,WNW,292,0.0,23.7,96,0.00,,,-99.99,HOBO +U30 +Weather +,2013-06-06 14:00:00,
2013-06-06 07:15:00,64.0,49.6,28.20,WNW,292,0.0,24.2,96,0.00,,,-99.99,HOBO +U30 +Weather +,2013-06-06 14:15:00,
2013-06-06 07:33:00,63.8,52.1,28.20,WNW,292,0.0,27.1,95,0.00,,,-99.99,HOBO +U30 +Weather +,2013-06-06 14:33:00,
2013-06-06 07:45:00,63.7,54.9,28.19,WNW,292,0.0,27.1,85,0.00,,,-99.99,HOBO +U30 +Weather +,2013-06-06 14:45:00,
2013-06-06 08:00:00,63.6,54.1,28.20,WNW,298,0.4,27.1,80,0.00,,,-99.99,HOBO +U30 +Weather +,2013-06-06 15:00:00,
2013-06-06 08:15:00,63.5,55.7,28.20,NNW,334,0.9,3.4,78,0.00,,,-99.99,HOBO +U30 +Weather +,2013-06-06 15:15:00,
2013-06-06 08:33:00,63.4,54.5,28.20,NNW,337,0.9,2.9,78,0.00,,,-99.99,HOBO +U30 +Weather +,2013-06-06 15:33:00,
2013-06-06 08:45:00,63.4,53.8,28.20,North,355,1.6,24.2,75,0.00,,,-99.99,HOBO +U30 +Weather +,2013-06-06 15:45:00,
2013-06-06 09:00:00,63.4,53.8,28.20,NNW,337,1.6,26.2,76,0.00,,,-99.99,HOBO +U30 +Weather +,2013-06-06 16:00:00,
2013-06-06 09:15:00,63.3,54.7,28.20,WNW,282,3.4,7.8,76,0.00,,,-99.99,HOBO +U30 +Weather +,2013-06-06 16:15:00,
2013-06-06 09:33:00,63.3,55.6,28.20,WNW,285,3.4,21.5,72,0.00,,,-99.99,HOBO +U30 +Weather +,2013-06-06 16:33:00,
2013-06-06 09:45:00,63.3,56.8,28.20,NW,314,2.0,29.5,68,0.00,,,-99.99,HOBO +U30 +Weather +,2013-06-06 16:45:00,
2013-06-06 10:00:00,63.2,56.3,28.19,West,279,2.9,15.9,68,0.00,,,-99.99,HOBO +U30 +Weather +,2013-06-06 17:00:00,
2013-06-06 10:15:00,63.3,58.2,28.18,WNW,284,2.9,29.1,64,0.00,,,-99.99,HOBO +U30 +Weather +,2013-06-06 17:15:00,
2013-06-06 10:33:00,63.4,55.8,28.18,WNW,291,4.3,9.6,63,0.00,,,-99.99,HOBO +U30 +Weather +,2013-06-06 17:33:00,
2013-06-06 10:45:00,63.4,56.5,28.18,West,275,4.3,8.3,61,0.00,,,-99.99,HOBO +U30 +Weather +,2013-06-06 17:45:00,
2013-06-06 11:00:00,63.6,56.9,28.18,West,279,4.5,28.2,60,0.00,,,-99.99,HOBO +U30 +Weather +,2013-06-06 18:00:00,
2013-06-06 11:15:00,63.7,56.5,28.19,WSW,256,5.4,15.4,62,0.00,,,-99.99,HOBO +U30 +Weather +,2013-06-06 18:15:00,
2013-06-06 11:33:00,63.9,58.6,28.18,West,277,4.9,11.2,58,0.00,,,-99.99,HOBO +U30 +Weather +,2013-06-06 18:33:00,
2013-06-06 11:45:00,64.1,57.1,28.19,WNW,285,6.3,14.1,60,0.00,,,-99.99,HOBO +U30 +Weather +,2013-06-06 18:45:00,
2013-06-06 12:00:00,64.3,58.0,28.18,WNW,282,5.8,19.0,58,0.00,,,-99.99,HOBO +U30 +Weather +,2013-06-06 19:00:00,
2013-06-06 12:15:00,64.5,57.8,28.18,WNW,285,5.8,15.4,57,0.00,,,-99.99,HOBO +U30 +Weather +,2013-06-06 19:15:00,
2013-06-06 12:33:00,64.8,57.4,28.18,West,275,5.4,13.6,56,0.00,,,-99.99,HOBO +U30 +Weather +,2013-06-06 19:33:00,
2013-06-06 12:45:00,65.1,57.1,28.18,West,278,5.4,26.2,58,0.00,,,-99.99,HOBO +U30 +Weather +,2013-06-06 19:45:00,
2013-06-06 13:00:00,65.4,56.6,28.19,West,268,5.4,26.2,57,0.00,,,-99.99,HOBO +U30 +Weather +,2013-06-06 20:00:00,
2013-06-06 13:15:00,65.6,57.6,28.19,West,261,6.7,26.2,55,0.00,,,-99.99,HOBO +U30 +Weather +,2013-06-06 20:15:00,
2013-06-06 13:34:00,65.9,57.1,28.18,West,264,6.3,17.0,54,0.00,,,-99.99,HOBO +U30 +Weather +,2013-06-06 20:34:00,
2013-06-06 13:45:00,66.2,57.8,28.18,West,263,6.3,13.6,54,0.00,,,-99.99,HOBO +U30 +Weather +,2013-06-06 20:45:00,
2013-06-06 14:00:00,66.5,56.6,28.17,WSW,251,6.7,17.4,51,0.00,,,-99.99,HOBO +U30 +Weather +,2013-06-06 21:00:00,
2013-06-06 14:15:00,66.8,57.7,28.17,West,261,5.8,16.1,50,0.00,,,-99.99,HOBO +U30 +Weather +,2013-06-06 21:15:00,
2013-06-06 14:34:00,67.1,56.8,28.17,West,281,6.3,27.1,50,0.00,,,-99.99,HOBO +U30 +Weather +,2013-06-06 21:34:00,
2013-06-06 14:45:00,67.4,57.4,28.17,West,281,5.8,21.3,49,0.00,,,-99.99,HOBO +U30 +Weather +,2013-06-06 21:45:00,
2013-06-06 15:00:00,67.7,56.3,28.17,West,261,5.8,14.5,47,0.00,,,-99.99,HOBO +U30 +Weather +,2013-06-06 22:00:00,
2013-06-06 15:15:00,68.1,55.6,28.17,West,277,5.4,25.3,46,0.00,,,-99.99,HOBO +U30 +Weather +,2013-06-06 22:15:00,
2013-06-06 15:34:00,68.4,57.3,28.17,NW,305,4.3,14.5,45,0.00,,,-99.99,HOBO +U30 +Weather +,2013-06-06 22:34:00,
2013-06-06 15:45:00,68.7,55.8,28.18,WNW,299,4.9,30.0,45,0.00,,,-99.99,HOBO +U30 +Weather +,2013-06-06 22:45:00,
2013-06-06 16:00:00,69.0,54.6,28.17,WNW,284,5.8,14.1,44,0.00,,,-99.99,HOBO +U30 +Weather +,2013-06-06 23:00:00,
2013-06-06 16:15:00,69.3,53.9,28.17,WNW,292,4.9,11.6,44,0.00,,,-99.99,HOBO +U30 +Weather +,2013-06-06 23:15:00,
2013-06-06 16:35:00,69.7,52.6,28.17,West,271,5.4,20.4,45,0.00,,,-99.99,HOBO +U30 +Weather +,2013-06-06 23:35:00,
2013-06-06 16:45:00,69.9,52.5,28.17,West,278,4.5,27.1,46,0.00,,,-99.99,HOBO +U30 +Weather +,2013-06-06 23:45:00,
2013-06-06 17:00:00,70.2,52.3,28.17,WNW,292,4.9,23.3,45,0.00,,,-99.99,HOBO +U30 +Weather +,2013-06-07 00:00:00,
2013-06-06 17:15:00,70.5,52.5,28.18,NW,314,2.9,29.5,45,0.00,,,-99.99,HOBO +U30 +Weather +,2013-06-07 00:15:00,
2013-06-06 17:34:00,70.6,52.0,28.19,NW,307,3.8,20.8,44,0.00,,,-99.99,HOBO +U30 +Weather +,2013-06-07 00:34:00,
2013-06-06 17:45:00,70.8,52.5,28.18,NW,316,3.4,19.0,48,0.00,,,-99.99,HOBO +U30 +Weather +,2013-06-07 00:45:00,
2013-06-06 18:00:00,71.0,53.1,28.19,NW,321,3.4,24.4,48,0.00,,,-99.99,HOBO +U30 +Weather +,2013-06-07 01:00:00,
2013-06-06 18:15:00,71.1,53.9,28.18,WNW,293,4.3,21.3,49,0.00,,,-99.99,HOBO +U30 +Weather +,2013-06-07 01:15:00,
2013-06-06 18:34:00,71.2,54.7,28.18,WNW,295,4.3,26.2,54,0.00,,,-99.99,HOBO +U30 +Weather +,2013-06-07 01:34:00,
2013-06-06 18:45:00,71.3,54.4,28.18,WNW,300,2.9,24.8,53,0.00,,,-99.99,HOBO +U30 +Weather +,2013-06-07 01:45:00,
2013-06-06 19:00:00,71.3,55.0,28.18,NW,321,2.9,22.8,54,0.00,,,-99.99,HOBO +U30 +Weather +,2013-06-07 02:00:00,
2013-06-06 19:15:00,71.4,54.6,28.17,WNW,293,3.4,9.6,53,0.00,,,-99.99,HOBO +U30 +Weather +,2013-06-07 02:15:00,
2013-06-06 19:34:00,71.4,54.2,28.17,WNW,299,2.5,9.2,56,0.00,,,-99.99,HOBO +U30 +Weather +,2013-06-07 02:34:00,
2013-06-06 19:45:00,71.4,54.3,28.17,WNW,289,1.3,23.3,61,0.00,,,-99.99,HOBO +U30 +Weather +,2013-06-07 02:45:00,
2013-06-06 20:00:00,71.4,54.3,28.17,WNW,291,0.9,23.3,62,0.00,,,-99.99,HOBO +U30 +Weather +,2013-06-07 03:00:00,
2013-06-06 20:15:00,71.4,54.4,28.18,WNW,299,2.0,23.7,62,0.00,,,-99.99,HOBO +U30 +Weather +,2013-06-07 03:15:00,
2013-06-06 20:34:00,71.4,53.8,28.18,NW,314,1.6,10.7,63,0.00,,,-99.99,HOBO +U30 +Weather +,2013-06-07 03:34:00,
2013-06-06 20:45:00,71.3,53.9,28.18,WNW,292,2.0,5.8,66,0.00,,,-99.99,HOBO +U30 +Weather +,2013-06-07 03:45:00,
2013-06-06 21:00:00,71.2,53.6,28.18,WNW,293,2.5,6.3,67,0.00,,,-99.99,HOBO +U30 +Weather +,2013-06-07 04:00:00,
2013-06-06 21:15:00,71.2,53.7,28.19,West,275,2.9,23.3,70,0.00,,,-99.99,HOBO +U30 +Weather +,2013-06-07 04:15:00,
2013-06-06 21:32:00,71.1,53.0,28.19,WSW,256,2.0,6.7,70,0.00,,,-99.99,HOBO +U30 +Weather +,2013-06-07 04:32:00,
2013-06-06 21:45:00,71.0,52.7,28.19,NNW,348,2.5,6.7,75,0.00,,,-99.99,HOBO +U30 +Weather +,2013-06-07 04:45:00,
2013-06-06 22:00:00,70.9,51.8,28.19,ENE,77,1.3,24.8,77,0.00,,,-99.99,HOBO +U30 +Weather +,2013-06-07 05:00:00,
2013-06-06 22:15:00,70.8,51.4,28.20,ENE,77,0.9,1.6,81,0.00,,,-99.99,HOBO +U30 +Weather +,2013-06-07 05:15:00,
2013-06-06 22:32:00,70.7,51.2,28.20,ENE,77,0.9,22.4,82,0.00,,,-99.99,HOBO +U30 +Weather +,2013-06-07 05:32:00,
2013-06-06 22:45:00,70.5,51.1,28.20,ENE,77,0.9,2.9,84,0.00,,,-99.99,HOBO +U30 +Weather +,2013-06-07 05:45:00,
2013-06-06 23:00:00,70.4,51.0,28.20,ENE,77,0.4,23.7,85,0.00,,,-99.99,HOBO +U30 +Weather +,2013-06-07 06:00:00,
2013-06-06 23:15:00,70.2,50.7,28.20,ENE,77,0.9,1.6,87,0.00,,,-99.99,HOBO +U30 +Weather +,2013-06-07 06:15:00,
2013-06-06 23:30:00,70.0,50.8,28.20,ENE,77,0.0,25.3,88,0.00,,,-99.99,HOBO +U30 +Weather +,2013-06-07 06:30:00,
2013-06-06 23:45:00,69.9,50.5,28.20,ENE,77,0.0,25.3,89,0.00,,,-99.99,HOBO +U30 +Weather +,2013-06-07 06:45:00,